sat.trackr.live / text

‹ back to catalog

STARLINK-32379

NORAD 61851 · 2024-202G

PAYLOAD ACTIVE UNKNOWN

§ Identity

Operator
Country
US
Launch date
2024-11-07
Launch site
AFETR
Launch vehicle
Mass (kg)
RCS (m²)

Purposes: comms

External: N2YO · Heavens-Above · Gunter

§ Orbital elements

Epoch: 2026-09-21T05:26:02.486688Z

Period
94.27 min
Inclination
43.0039°
Eccentricity
0.0001094
Mean motion
15.27579788 rev/d
Perigee alt
482.3 km
Apogee alt
483.8 km
Semi-major
6,861.2 km
B*
3.5390e-5
RAAN
202.3527°
Arg perigee
264.8531°
Mean anomaly
95.2196°
Rev number
10,536

§ Raw data

STARLINK-323791 61851U 24202G   26264.22641767  .00000712  00000+0  35390-4 0  99992 61851  43.0039 202.3527 0001094 264.8531  95.2196 15.27579788105362

JSON: /api/v1/satellites/61851 · /tle

For live sub-satellite position, see the globe view (requires WebGL).

§ Visibility from observer

Set your observer location to see the next 7 days of passes ≥ 10°. The values pass through the URL so the page stays shareable.

No JS? Fill the form by hand. The geolocation button needs JavaScript.